Location: ????
(30.1475°N, 31.1342°E)
Time: 18:09:31
(UTC+00:00)

Meteor 1-14 Rocket - Pass Details

Date: 01 April 2023
Orbit: 834 x 918 km, 81.3° (Epoch: 03 June)

Event Time Altitude Azimuth Distance (km) Brightness Sun altitude
Rises 00:12:01 0° 17° (NNE) 3,392 8.0 -43.2°
Reaches altitude 10° 00:15:45 10° 42° (NE) 2,464 7.2 -42.5°
Maximum altitude 00:18:31 14° 72° (ENE) 2,207 6.9 -42.1°
Drops below altitude 10° 00:21:18 10° 103° (ESE) 2,479 6.9 -41.6°
Enters shadow 00:21:21 10° 103° (ESE) 2,488 6.9 -41.6°
